Volver al catálogo

TRACERS 1

ActivoCienciaSSO
NORAD 64870·PAYLOAD·🇺🇸 United States

Lanzado Jul 23, 2025 desde Vandenberg Space Force Base

Loading…

Próximos Pases (próximas 24 horas)

TLE

ActualizadoSource: Space-Track

Época: Sep 14, 2026, 09:52 UTC

1 64870U 25154B   26257.41118367  .00000834  00000-0  84079-4 0  9992
2 64870  97.6601 318.8525 0004594 334.0675  26.0314 14.93682866 62319

Sigue TRACERS 1 en tiempo real con AllMySat

Download on the App Store